Time,TemperatureF,DewpointF,PressureIn,WindDirection,WindDirectionDegrees,WindSpeedMPH,WindSpeedGustMPH,Humidity,HourlyPrecipIn,Conditions,Clouds,dailyrainin,SoftwareType,DateUTC
2013-08-26 00:23:00,73.0,69.0,-100.00,SSE,160,0.0,0.0,87,-99.99,,,-99.99,,2013-08-26 05:23:00,
2013-08-26 00:52:00,72.0,68.0,-100.00,South,190,0.0,0.0,88,-99.99,,,-99.99,,2013-08-26 05:52:00,
2013-08-26 01:22:00,71.0,68.0,-100.00,SSE,160,0.0,0.0,90,-99.99,,,-99.99,,2013-08-26 06:22:00,
2013-08-26 01:52:00,71.0,68.0,-100.00,SSW,210,0.0,0.0,91,-99.99,,,-99.99,,2013-08-26 06:52:00,
2013-08-26 02:22:00,71.0,69.0,-100.00,South,180,0.0,0.0,94,-99.99,,,-99.99,,2013-08-26 07:22:00,
2013-08-26 02:52:00,69.0,68.0,-100.00,SSE,160,0.0,0.0,95,-99.99,,,-99.99,,2013-08-26 07:52:00,
2013-08-26 03:22:00,69.0,68.0,-100.00,SE,145,0.0,0.0,98,-99.99,,,-99.99,,2013-08-26 08:22:00,
2013-08-26 03:52:00,68.0,67.0,-100.00,SE,135,0.0,0.0,99,-99.99,,,-99.99,,2013-08-26 08:52:00,
2013-08-26 04:21:00,67.0,66.0,-100.00,East,80,0.0,0.0,99,-99.99,,,-99.99,,2013-08-26 09:21:00,
2013-08-26 04:54:00,66.0,65.0,-100.00,East,95,0.0,0.0,99,-99.99,,,-99.99,,2013-08-26 09:54:00,
2013-08-26 05:23:00,65.0,65.0,-100.00,SSE,150,0.0,0.0,99,-99.99,,,-99.99,,2013-08-26 10:23:00,
2013-08-26 05:52:00,65.0,64.0,-100.00,ENE,70,0.0,0.0,99,-99.99,,,-99.99,,2013-08-26 10:52:00,
2013-08-26 06:22:00,64.0,64.0,-100.00,ESE,115,0.0,0.0,99,-99.99,,,-99.99,,2013-08-26 11:22:00,
2013-08-26 06:52:00,64.0,64.0,-100.00,East,85,0.0,0.0,99,-99.99,,,-99.99,,2013-08-26 11:52:00,
2013-08-26 07:22:00,64.0,63.0,-100.00,East,95,0.0,0.0,99,-99.99,,,-99.99,,2013-08-26 12:22:00,
2013-08-26 07:52:00,65.0,64.0,-100.00,East,90,0.0,0.0,99,-99.99,,,-99.99,,2013-08-26 12:52:00,
2013-08-26 08:21:00,68.0,68.0,-100.00,ESE,120,0.0,0.0,99,-99.99,,,-99.99,,2013-08-26 13:21:00,
2013-08-26 08:52:00,74.0,72.0,-100.00,ESE,105,0.0,0.0,96,-99.99,,,-99.99,,2013-08-26 13:52:00,
2013-08-26 11:59:00,92.0,73.0,-100.00,WSW,250,0.0,0.0,54,-99.99,,,-99.99,,2013-08-26 16:59:00,
2013-08-26 12:53:00,93.0,72.0,-100.00,WSW,245,0.0,0.0,50,-99.99,,,-99.99,,2013-08-26 17:53:00,
2013-08-26 13:22:00,92.0,72.0,-100.00,WNW,285,0.0,0.0,51,-99.99,,,-99.99,,2013-08-26 18:22:00,
2013-08-26 13:52:00,94.0,73.0,-100.00,SSW,195,0.0,0.0,51,-99.99,,,-99.99,,2013-08-26 18:52:00,
2013-08-26 14:22:00,94.0,71.0,-100.00,SW,235,0.0,0.0,48,-99.99,,,-99.99,,2013-08-26 19:22:00,
2013-08-26 14:52:00,93.0,70.0,-100.00,WSW,245,0.0,0.0,47,-99.99,,,-99.99,,2013-08-26 19:52:00,
2013-08-26 15:22:00,96.0,70.0,-100.00,SW,235,0.0,0.0,43,-99.99,,,-99.99,,2013-08-26 20:22:00,
2013-08-26 15:52:00,95.0,70.0,-100.00,SW,220,0.0,0.0,45,-99.99,,,-99.99,,2013-08-26 20:52:00,
2013-08-26 16:22:00,93.0,70.0,-100.00,West,265,0.0,0.0,47,-99.99,,,-99.99,,2013-08-26 21:22:00,
2013-08-26 16:55:00,93.0,70.0,-100.00,WSW,255,0.0,0.0,48,-99.99,,,-99.99,,2013-08-26 21:55:00,
2013-08-26 17:26:00,92.0,70.0,-100.00,South,190,0.0,0.0,49,-99.99,,,-99.99,,2013-08-26 22:26:00,
2013-08-26 17:53:00,91.0,70.0,-100.00,SSW,210,0.0,0.0,50,-99.99,,,-99.99,,2013-08-26 22:53:00,
2013-08-26 18:22:00,91.0,70.0,-100.00,SSW,200,0.0,0.0,50,-99.99,,,-99.99,,2013-08-26 23:22:00,
2013-08-26 18:52:00,90.0,71.0,-100.00,SSW,205,0.0,0.0,53,-99.99,,,-99.99,,2013-08-26 23:52:00,
2013-08-26 19:21:00,89.0,71.0,-100.00,SW,215,0.0,0.0,56,-99.99,,,-99.99,,2013-08-27 00:21:00,
2013-08-26 19:52:00,87.0,72.0,-100.00,SW,220,0.0,0.0,61,-99.99,,,-99.99,,2013-08-27 00:52:00,
2013-08-26 20:22:00,85.0,71.0,-100.00,South,190,0.0,0.0,63,-99.99,,,-99.99,,2013-08-27 01:22:00,
2013-08-26 20:52:00,84.0,70.0,-100.00,SSW,195,0.0,0.0,64,-99.99,,,-99.99,,2013-08-27 01:52:00,
2013-08-26 21:21:00,82.0,72.0,-100.00,SSW,205,0.0,0.0,70,-99.99,,,-99.99,,2013-08-27 02:21:00,
2013-08-26 21:52:00,82.0,73.0,-100.00,South,180,0.0,0.0,74,-99.99,,,-99.99,,2013-08-27 02:52:00,
2013-08-26 22:22:00,81.0,72.0,-100.00,SW,215,0.0,0.0,76,-99.99,,,-99.99,,2013-08-27 03:22:00,
2013-08-26 22:58:00,81.0,72.0,-100.00,WSW,240,0.0,0.0,75,-99.99,,,-99.99,,2013-08-27 03:58:00,
2013-08-26 23:29:00,81.0,72.0,-100.00,WSW,240,0.0,0.0,75,-99.99,,,-99.99,,2013-08-27 04:29:00,
2013-08-26 23:54:00,80.0,72.0,-100.00,SSW,205,0.0,0.0,78,-99.99,,,-99.99,,2013-08-27 04:54:00,